Regional Weather Roundup
Issued by NWS Jackson, KY

Home | Current Version | Previous Version | Text Only | Print | Product List | Glossary On
Versions: 1 2 3 4 5 6 7 8 9 10 11 12 13 14 15 16 17 18 19 20 21 22 23 24 25 26 27 28 29 30 31 32 33 34 35 36 37 38 39 40 41 42 43 44 45 46 47 48 49 50
000
ASUS43 KJKL 301710
RWRJKL

EAST KENTUCKY HOURLY WEATHER ROUNDUP
NATIONAL WEATHER SERVICE JACKSON KY
100 PM EDT SAT MAY 30 2015

NOTE: "FAIR" INDICATES FEW OR NO CLOUDS BELOW 12,000 FEET WITH
NO SIGNIFICANT WEATHER AND/OR OBSTRUCTIONS TO VISIBILITY.

* THESE REPORTS ARE NOT UNDER NWS QUALITY CONTROL AND MAY NOT
  REPORT WEATHER SUCH AS PRECIPITATION AND FOG.

KYZ079-080-083-085-087-088-110-112-115-119-120-301800
...EASTERN KENTUCKY...

CITY           SKY/WX    TMP DP  RH WIND       PRES   REMARKS
JACKSON        SUNNY     82  61  48 VRB7      30.15F
LONDON         PTSUNNY   82  59  45 S10G18    30.15F
SOMERSET*      PTSUNNY   77  63  61 S8        30.15S
MONTICELLO*    SUNNY     82  68  62 SE14      30.15F
MIDDLESBORO*   MOSUNNY   82  61  49 SW3       30.17F
HARLAN APT*    CLOUDY    79  55  44 MISG      30.18S
HAZARD APT*    MOSUNNY   86  55  35 SW6       30.15F
BLACK MTN*       N/A     70  59  68 SW5         N/A
PIKEVILLE APT* SUNNY     81  63  54 S3        30.16F
BIG SANDY*     SUNNY     82  64  53 SW8       30.15F
MOREHEAD APT*  PTSUNNY   81  64  57 SW12      30.14F
$$

KYZ035-036-041-042-044-050-067-078-099-301800
...CENTRAL KENTUCKY...

CITY           SKY/WX    TMP DP  RH WIND       PRES   REMARKS
MT STERLING*   PTSUNNY   81  66  61 S12       30.13F
FLEMING/MASON* MOSUNNY   82  66  57 SW13G18   30.10F
DANVILLE*      MOSUNNY   81  63  54 SW10G17   30.12F
RICHMOND*      CLOUDY    79  63  57 S9        30.12S
LEXINGTON      CLOUDY    80  67  64 SW10      30.10F
FRANKFORT      MOSUNNY   84  65  52 SW13G22   30.07F
$$

KYZ091>093-OHZ055-061-077-WVZ005-015-034-035-042-301800
...SOUTHERN OHIO/WEST VIRGINIA...

CITY           SKY/WX    TMP DP  RH WIND       PRES   REMARKS
COVINGTON      MOSUNNY   82  68  62 SW10      30.05F
COLUMBUS       PTSUNNY   81  67  62 SW13      30.06F
DAYTON         PTSUNNY   83  67  58 S13       30.04F
WILMINGTON     MOSUNNY   81  64  56 S13       30.06F
HUNTINGTON     MOSUNNY   83  64  52 SW7       30.11F
CHARLESTON     PTSUNNY   81  63  54 SW10      30.13F
PINEVILLE*     MOSUNNY   82  62  50 MISG      30.23F
BECKLEY        MOSUNNY   78  57  48 VRB3      30.22F
BLUEFIELD      MOSUNNY   78  59  51 VRB6      30.25F
$$

VAZ002-007-008-TNZ017-027-036-066-071-301800
...SOUTHWEST VIRGINIA/EAST TENNESSEE...

CITY           SKY/WX    TMP DP  RH WIND       PRES   REMARKS
WISE*          MOSUNNY   79  54  41 CALM      30.24F
JONESVILLE*    MOSUNNY   81  57  44 S6        30.20F
ABINGDON*      MOSUNNY   81  55  39 W5        30.21F
BRISTOL        MOSUNNY   84  54  35 S10       30.18F
KNOXVILLE      MOSUNNY   80  59  48 SW12      30.15F
OAK RIDGE      MOSUNNY   84  60  44 VRB5      30.16F
CROSSVILLE     MOSUNNY   77  60  55 S8G20     30.19F
NASHVILLE      PTSUNNY   85  67  54 S14G25    30.07F
$$

...KEY TO REMARKS...
VSB - VISIBILITY IN MILES
WCI - WIND CHILL INDEX
HX  - HEAT INDEX

$$



USA.gov is the U.S. government's official web portal to all federal, state and local government web resources and services.